COSMOS 252 DEB *, 3686

Orbit data source: Space-Track

COSMOS 252 DEB *, 3686 is space debris in LEO originally from a launch on Fri, 01 Nov 1968 UTC launched from the Tyuratam Missile And Space Complex (TTMTR). Debris objects in space refer to the collection of defunct objects orbiting the Earth. Examples of debris include non-operational satellites, rocket bodies, and fragments generated from explosions, collisions, or faulty payload assembly.

Loading next visibility...
Identifier
3686, 1968-097AD
Orbit
LEO
Country
Flag of CISCIS
Related business
Manufacturer
Unknown
Mission
Spacecraft
Bus & Motor
Unknown
Mass
Unknown
Launch date (UTC)
1968-11-01 (58 years ago)
Launch vehicle
Unknown
Launch site
Tyuratam Missile And Space Complex (TTMTR)
Object type
Payload
Rocket body
Debris
Shape & HBR
Unknown shape, 0.1 m
Radar Cross Section
Medium (>0.1 m² and <1 m²)

Expand to show TLE details & history
Last TLE update: 15 hours ago

TLE from 15 hours ago
0 COSMOS 252 DEB *
1  3686U 68097AD  26191.98125613  .00001680  00000-0  16195-2 0  9996
2  3686  62.2618  40.9435 0628254 176.0238 184.6112 13.17945645699900
Epoch: 2026-07-10T23:33Z
TLE epoch observation values (Epoch: 2026-07-10T23:33:00.529Z)
Latitude
-0.00001°
Longitude
118.79026°
Altitude
1,668.535 km
Speed
6.816 km/s
True Right ascension
02h 43m 46s
True Declination
0° 00' 00"
Sunlit
Object was in daylight at epoch
Visualization orbit readout
Latitude
Unknown
Longitude
Unknown
Altitude
Unknown
Speed
Unknown
Apparent Right ascension
Unknown
Apparent Declination
Unknown
Sunlit
N/A
Visualization observer readout
Local Sidereal Time
02:42:07
Azimuth
Unknown
Elevation
Unknown
Doppler factor
Unknown
Orbital elements
Apogee altitude
1,667.126 km
Perigee altitude
715.988 km
Semi-major axis
7,569.694 km
Eccentricity
0.06283
Inclination
62.2618°
RAAN
40.9435°
Arg. of periapsis
176.0238°
True anomaly
184.07456°
Mean anomaly
184.6112°
Eccentric anomaly
184.33887°
Mean motion
3.29553 °/min
Orbital period
109.24 mins
BSTAR
0.0016195
Loading maneuver chart data...
Computing Atmospheric mass density...

Documentation

Showing up to 5 results
|